238  
ASUS44 KMEG 201210  
RWRMEG  
MEMPHIS CWA HOURLY WEATHER ROUNDUP  
NATIONAL WEATHER SERVICE MEMPHIS TN  
700 AM CDT SAT APR 20 2019  
   
..WEST TENNESSEE
 
 
 
CITY SKY/WX TMP DP RH WIND PRES REMARKS
 
MEMPHIS INTL FAIR 48 32 53 NW15 29.85R  
6HR MIN TEMP: 46; 6HR MAX TEMP: 51;  
 
NWS MEMPHIS N/A 44 N/A N/A MISG N/A  
JACKSON FAIR 45 29 53 NW17 29.78R  
6HR MIN TEMP: 44; 6HR MAX TEMP: 50;  
 
COVINGTON CLEAR 46 34 61 NW13 29.83R  
SOMERVILLE CLEAR 45 34 65 VRB7 29.81R  
BOLIVAR CLEAR 46 30 53 W7G15 29.79R  
LEXINGTON N/A 43 39 87 W6 29.72R  
SELMER CLEAR 45 32 61 NW9 29.74R  
DYERSBURG FAIR 46 34 62 W7 29.82R  
6HR MIN TEMP: 46; 6HR MAX TEMP: 51;  
 
UNION CITY CLEAR 45 30 57 NW10G18 29.76R  
PARIS CLOUDY 45 34 65 VRB7 29.72R  
HUNTINGDON CLOUDY 45 34 65 NW9G17 29.73R  
 
   
..EASTERN ARKANSAS
 
 
 
CITY SKY/WX TMP DP RH WIND PRES REMARKS
 
JONESBORO FAIR 47 32 56 W9 29.88R  
6HR MIN TEMP: 46; 6HR MAX TEMP: 52;  
 
WEST MEMPHIS FAIR 47 35 63 NW5 29.87R  
6HR MIN TEMP: 47; 6HR MAX TEMP: 52;  
 
BATESVILLE CLEAR 44 33 65 NW5 29.94R  
6HR MIN TEMP: 43; 6HR MAX TEMP: 48;  
 
NEWPORT FAIR 45 34 65 NW10 29.91R  
6HR MIN TEMP: 44; 6HR MAX TEMP: 50;  
 
WALNUT RIDGE FAIR 46 30 53 NW15 29.89R  
6HR MIN TEMP: 44; 6HR MAX TEMP: 50;  
 
BLYTHEVILLE FAIR 44 32 62 NW10 29.84R  
6HR MIN TEMP: 43; 6HR MAX TEMP: 49;  
 
SEARCY FAIR 45 35 68 W3 29.95R  
6HR MIN TEMP: 44; 6HR MAX TEMP: 48;  
 
STUTTGART FAIR 48 39 71 W10 29.95R  
6HR MIN TEMP: 47; 6HR MAX TEMP: 52; 6HR PCP: 0.01;  
 
PINE BLUFF FAIR 46 36 68 W9 29.97R  
6HR MIN TEMP: 46; 6HR MAX TEMP: 51;  
 
MONTICELLO FAIR 43 38 82 W5 29.97R  
6HR MIN TEMP: 43; 6HR MAX TEMP: 51;  
 
   
..NORTH MISSISSIPPI
 
 
 
CITY SKY/WX TMP DP RH WIND PRES REMARKS
 
TUPELO FAIR 47 34 60 VRB6 29.81R  
6HR MIN TEMP: 46; 6HR MAX TEMP: 48;  
 
OXFORD FAIR 43 36 75 W6 29.87R  
BATESVILLE FAIR 46 34 61 W6 29.88R  
OLIVE BRANCH CLEAR 45 34 65 NW12 29.84R  
TUNICA N/A 45 34 65 NW12 29.90R  
CLARKSDALE CLEAR 48 37 66 W10 29.91R  
CORINTH FAIR 46 32 57 NW12G17 29.77R  
GREENWOOD FAIR 49 36 61 VRB5 29.92R  
6HR MIN TEMP: 49; 6HR MAX TEMP: 52;  
 
COLUMBUS FAIR 46 38 74 W13 29.82R  
6HR MIN TEMP: 46; 6HR MAX TEMP: 48; 6HR PCP: TRACE;  
 
STARKVILLE FAIR 45 41 87 W5 29.87R  
GOLDEN TRIANGL FAIR 47 40 76 W8 29.85R  
6HR MIN TEMP: 46; 6HR MAX TEMP: 48; 6HR PCP: TRACE;  
 
   
..SOUTHEAST MISSOURI
 
 
 
CITY SKY/WX TMP DP RH WIND PRES REMARKS
 
KENNETT FAIR 45 32 61 W12 29.83R  
MALDEN FAIR 45 32 61 NW9 29.85R  
WEST PLAINS CLEAR 42 29 59 NW8 29.92R  
6HR MIN TEMP: 40; 6HR MAX TEMP: 46;  
 
POPLAR BLUFF FAIR 44 26 49 W5 29.85R  
6HR MIN TEMP: 42; 6HR MAX TEMP: 48;  
 
CAPE GIRARDEAU FAIR 45 29 53 N13 29.80R  
6HR MIN TEMP: 44; 6HR MAX TEMP: 48;  
 
   
..NORTHWEST ALABAMA
 
 
 
CITY SKY/WX TMP DP RH WIND PRES REMARKS
 
MUSCLE SHOALS CLOUDY 45 41 86 NW9G20 29.74R  
6HR MIN TEMP: 44; 6HR MAX TEMP: 46; 6HR PCP: 0.22;  
 
   
..MIDDLE TENNESSEE
 
 
 
CITY SKY/WX TMP DP RH WIND PRES REMARKS
 
NASHVILLE LGT RAIN 42 38 85 NW5 29.66R FOG  
6HR MIN TEMP: 39; 6HR MAX TEMP: 42; 6HR PCP: 0.19;  
 
CLARKSVILLE CLOUDY 41 38 89 NW15 29.67R  
6HR MIN TEMP: 41; 6HR MAX TEMP: 43; 6HR PCP: 0.30;  
 
DICKSON CLOUDY 41 39 93 NW12G18 29.66R FOG  
COLUMBIA CLOUDY 41 41 100 NW8G18 29.66R  
LAWRENCEBURG CLOUDY 41 39 93 NW10G18 29.67R  
LEWISBURG CLOUDY 41 41 100 CALM 29.66R FOG  
 
   
..WESTERN KENTUCKY
 
 
 
CITY SKY/WX TMP DP RH WIND PRES REMARKS
 
PADUCAH FAIR 44 29 55 NW18G25 29.74R  
6HR MIN TEMP: 44; 6HR MAX TEMP: 48;  
 
FORT CAMPBELL DRIZZLE 41 41 100 NW15 29.67  
6HR MIN TEMP: 41; 6HR MAX TEMP: 43; 6HR PCP: 0.30;  
 
   
..CENTRAL ARKANSAS
 
 
 
CITY SKY/WX TMP DP RH WIND PRES REMARKS
 
LITTLE ROCK CLEAR 46 35 65 W7 29.96R  
6HR MIN TEMP: 44; 6HR MAX TEMP: 52;  
 
SKY/WX REPORTED AS FAIR MEANS FEW OR NO CLOUDS BELOW  
12 THOUSAND FEET.  
 
 
 
CLICK HERE TO GO TO PREVIOUS BULLETINS.

The Nexlab TN Page
The Nexlab MS Page
The Nexlab AR Page Main Text Page